Photometre #849[NE_1.6_Dp] Portglenone_MO AOT

File : 20220927_849.hum

27/09/2022,07:22:33,TEMP=9.0,BA=5.68,STAT.A,ExtBa=12.30
27/09/2022,07:27:08,TEMP=9.4,BA=5.68,STAT.A,ExtBa=12.30
27/09/2022,07:32:30,TEMP=9.4,BA=5.68,STAT.A,ExtBa=12.30
27/09/2022,07:38:54,TEMP=9.5,BA=5.68,STAT.A,ExtBa=12.20
27/09/2022,07:46:41,TEMP=9.6,BA=5.64,STAT.A,ExtBa=12.30
27/09/2022,07:56:20,TEMP=9.7,BA=5.68,STAT.A,ExtBa=12.30
27/09/2022,08:08:40,TEMP=10.1,BA=5.68,STAT.B,ExtBa=12.30
27/09/2022,08:14:38,TEMP=10.3,BA=5.64,STAT.A,ExtBa=12.30
27/09/2022,08:21:22,TEMP=10.4,BA=5.68,STAT.A,ExtBa=12.30
27/09/2022,08:29:02,TEMP=10.9,BA=5.68,STAT.A,ExtBa=12.20
27/09/2022,08:37:51,TEMP=10.8,BA=5.64,STAT.A,ExtBa=12.30
27/09/2022,08:48:09,TEMP=11.1,BA=5.68,STAT.C,ExtBa=12.20
27/09/2022,09:00:23,TEMP=11.2,BA=5.68,STAT.A,ExtBa=12.30
27/09/2022,09:15:15,TEMP=11.2,BA=5.68,STAT.A,ExtBa=12.30
27/09/2022,09:17:33,TEMP=11.4,BA=5.68,STAT.F,ExtBa=12.20
27/09/2022,09:32:31,TEMP=11.1,BA=5.68,STAT.D,ExtBa=12.30
27/09/2022,09:47:31,TEMP=10.8,BA=5.68,STAT.D,ExtBa=12.30
27/09/2022,10:02:31,TEMP=11.3,BA=5.68,STAT.D,ExtBa=12.30
27/09/2022,10:17:33,TEMP=11.9,BA=5.68,STAT.F,ExtBa=12.30
27/09/2022,10:32:32,TEMP=12.7,BA=5.68,STAT.D,ExtBa=12.30
27/09/2022,10:47:32,TEMP=13.6,BA=5.68,STAT.D,ExtBa=12.30
27/09/2022,11:02:32,TEMP=13.5,BA=5.64,STAT.D,ExtBa=12.30
27/09/2022,11:17:33,TEMP=13.0,BA=5.68,STAT.F,ExtBa=12.30
27/09/2022,11:32:32,TEMP=12.9,BA=5.64,STAT.D,ExtBa=12.30
27/09/2022,11:47:32,TEMP=13.3,BA=5.64,STAT.D,ExtBa=12.30
27/09/2022,12:02:32,TEMP=11.8,BA=5.64,STAT.D,ExtBa=12.30
27/09/2022,12:17:33,TEMP=9.9,BA=5.64,STAT.F,ExtBa=12.30
27/09/2022,12:32:32,TEMP=10.2,BA=5.64,STAT.D,ExtBa=12.30
27/09/2022,12:47:32,TEMP=10.9,BA=5.64,STAT.D,ExtBa=12.30
27/09/2022,13:02:32,TEMP=10.3,BA=5.64,STAT.D,ExtBa=12.30
27/09/2022,13:17:33,TEMP=11.0,BA=5.64,STAT.F,ExtBa=12.30
27/09/2022,13:32:32,TEMP=12.9,BA=5.64,STAT.D,ExtBa=12.30
27/09/2022,13:47:32,TEMP=13.5,BA=5.64,STAT.D,ExtBa=12.30
27/09/2022,14:02:32,TEMP=13.4,BA=5.64,STAT.D,ExtBa=12.30
27/09/2022,14:17:33,TEMP=12.1,BA=5.64,STAT.F,ExtBa=12.30
27/09/2022,14:32:32,TEMP=12.8,BA=5.56,STAT.D,ExtBa=12.10
27/09/2022,14:47:31,TEMP=13.5,BA=5.64,STAT.D,ExtBa=12.20
27/09/2022,15:02:31,TEMP=14.9,BA=5.64,STAT.D,ExtBa=12.20
27/09/2022,15:17:33,TEMP=15.8,BA=5.64,STAT.F,ExtBa=12.20
27/09/2022,15:33:01,TEMP=14.6,BA=5.56,STAT.A,ExtBa=12.10
27/09/2022,15:35:01,TEMP=14.5,BA=5.56,STAT.A,ExtBa=12.10
27/09/2022,15:46:57,TEMP=13.8,BA=5.64,STAT.C,ExtBa=12.20
27/09/2022,16:01:29,TEMP=14.0,BA=5.56,STAT.A,ExtBa=12.10
27/09/2022,16:06:04,TEMP=13.1,BA=5.56,STAT.A,ExtBa=12.10
27/09/2022,16:13:44,TEMP=12.6,BA=5.64,STAT.A,ExtBa=12.10
27/09/2022,16:20:28,TEMP=12.5,BA=5.64,STAT.A,ExtBa=12.20
27/09/2022,16:26:26,TEMP=12.4,BA=5.64,STAT.B,ExtBa=12.20
27/09/2022,16:38:46,TEMP=12.2,BA=5.64,STAT.A,ExtBa=12.20
27/09/2022,16:48:24,TEMP=11.9,BA=5.60,STAT.A,ExtBa=12.20
27/09/2022,16:56:10,TEMP=12.0,BA=5.56,STAT.A,ExtBa=12.20
27/09/2022,17:02:34,TEMP=12.3,BA=5.64,STAT.A,ExtBa=12.20
27/09/2022,17:07:56,TEMP=12.4,BA=5.64,STAT.A,ExtBa=12.20
27/09/2022,17:12:31,TEMP=12.4,BA=5.64,STAT.A,ExtBa=12.20